Location: Cella
(44.7333°N, 10.5667°E)
Time: 07:08:24
(UTC+00:00)

CSL-04 Rocket - Pass Details

Date: 03 March 2021
Orbit: 805 x 861 km, 98.9° (Epoch: 19 April)

Event Time Altitude Azimuth Distance (km) Brightness Sun altitude
Rises 18:20:43 0° 162° (SSE) 3,423 6.6 -13.7°
Reaches altitude 10° 18:23:05 10° 162° (SSE) 2,490 5.9 -14.1°
Maximum altitude 18:28:39 87° 73° (ENE) 864 3.7 -15.1°
Drops below altitude 10° 18:34:11 10° 346° (NNW) 2,486 6.4 -16.0°
Sets 18:36:33 0° 347° (NNW) 3,419 7.1 -16.5°
